ARIANE 5 DEB (SYLDA), 44803

Orbit data source: Space-Track

ARIANE 5 DEB (SYLDA), 44803 is space debris originally from a launch on Tue, 26 Nov 2019 UTC launched from the French Guiana (FRGUI). Debris objects in space refer to the collection of defunct objects orbiting the Earth. Examples of debris include non-operational satellites, rocket bodies, and fragments generated from explosions, collisions, or faulty payload assembly.

Loading next visibility...
Identifier
44803, 2019-080D
Orbit
Active
Country
Flag of FRFR
Related business
Manufacturer
ADS/Bremen
Mission
Spacecraft
Bus & Motor
SYLDA 5, Unknown motor
Mass
440 kg wet, 440 kg dry
Launch date (UTC)
2019-11-26 (6 years ago)
Launch vehicle
Unknown
Launch site
French Guiana (FRGUI)
Object type
Payload
Rocket body
Debris
Shape & HBR
Cyl, Unknown HBR
Radar Cross Section
27.391 m², Large (>1 m²)

Expand to show TLE details & history
Last TLE update: 18 hours ago

TLE from 18 hours ago
0 ARIANE 5 DEB (SYLDA)
1 44803U 19080D   26129.80972181  .00196296  00000-0  54870-2 0  9992
2 44803   5.3107  64.5566 3857239  81.7703 319.2104  7.76809760101026
Epoch: 2026-05-09T19:25Z
TLE epoch observation values (Epoch: 2026-05-09T19:25:59.964Z)
Latitude
-0°
Longitude
-94.5651°
Altitude
2,306.666 km
Speed
7.402 km/s
True Right ascension
04h 18m 13s
True Declination
0° 00' 00"
Sunlit
Object was in daylight at epoch
Visualization orbit readout
Latitude
Unknown
Longitude
Unknown
Altitude
Unknown
Speed
Unknown
Apparent Right ascension
Unknown
Apparent Declination
Unknown
Sunlit
N/A
Visualization observer readout
Local Sidereal Time
21:34:25
Azimuth
Unknown
Elevation
Unknown
Doppler factor
Unknown
Orbital elements
Apogee altitude
8,552.432 km
Perigee altitude
240.419 km
Semi-major axis
10,774.562 km
Eccentricity
0.38572
Inclination
5.3107°
RAAN
64.5566°
Arg. of periapsis
81.7703°
True anomaly
278.23991°
Mean anomaly
319.2104°
Eccentric anomaly
300.08791°
Mean motion
1.94063 °/min
Orbital period
185.51 mins
BSTAR
0.005487
Loading maneuver chart data...
Computing Atmospheric mass density...
Loading historical data...
Loading historical data...
Loading historical data...
Loading historical data...
Loading historical data...
Loading historical data...
Loading historical data...
Other satellites on launch #80 in the year 2019 (2019-11-26 UTC)

Documentation

Showing up to 5 results
|